Fairbanks, AK

5:13 AM AKDT on October 18, 2019 (GMT -0800)
Fairbanks International

Weather History for PAFA - September, 2019

Change the Weather History Date:

Wednesday, September 18, 2019

  Actual Average Record
Temperature  
Mean Temperature 44 °F 44 °F  
Max Temperature 51 °F 54 °F 74 °F (1995)
Min Temperature 36 °F 34 °F 17 °F (1904)
Degree Days  
Heating Degree Days 22 21  
Month to date heating degree days 208 310  
Since 1 July heating degree days 528 699  
Cooling Degree Days 0 0  
Month to date cooling degree days 0 0  
Year to date cooling degree days 123 61  
Moisture  
Dew Point 40 °F    
Average Humidity 83    
Maximum Humidity 93    
Minimum Humidity 65    
Precipitation  
Precipitation 0.22 in 0.03 in 0.38 in (1925)
Month to date precipitation 0.35 0.74  
Year to date precipitation 11.82 8.31  
Snow  
Snow 0.00 in 0.00 in 4.70 in (1992)
Month to date snowfall 0.0 0.6  
Since 1 July snowfall 0.0 0.6  
Since 1 September snowfall 0.0 0.6  
Snow Depth 0.00 in    
Sea Level Pressure  
Sea Level Pressure 29.36 in    
Wind  
Wind Speed 4 mph ()    
Max Wind Speed 7 mph    
Max Gust Speed -    
Visibility 9.6 miles    
Events Rain    
T = Trace of Precipitation, MM = Missing Value Source: Averaged Metar Reports

Daily Weather History Graph

Daily Weather History Graph

Search for Another Location

Airport or City:

Astronomy

Sep. 18, 2019 Rise Set
Actual Time 7:22 AM AKDT 8:07 PM AKDT
Civil Twilight 6:32 AM AKDT 8:56 PM AKDT
Nautical Twilight 5:30 AM AKDT 9:58 PM AKDT
Astronomical Twilight 4:14 AM AKDT 11:12 PM AKDT
Moon 9:11 PM AKDT 1:03 PM AKDT
Length of Visible Light 14h 23m
Length of Day
12h 44m
Waning Gibbous, 81% of the Moon is Illuminated
Sep 18
Waning Gibbous
Sep 21
Last Quarter
Sep 28
New
Oct 5
First Quarter
Oct 13
Full

Hourly Weather History & Observations

Time (AKDT) Temp. Windchill Dew Point Humidity Pressure Visibility Wind Dir Wind Speed Gust Speed Precip Events Conditions
12:53 AM 36.0 °F 31.1 °F 30.0 °F 79% 29.55 in 10.0 mi NNE 5.8 mph - N/A   Mostly Cloudy
1:53 AM 37.0 °F 32.4 °F 30.0 °F 76% 29.52 in 10.0 mi ENE 5.8 mph - N/A   Mostly Cloudy
2:53 AM 37.9 °F 34.4 °F 30.0 °F 73% 29.48 in 10.0 mi NE 4.6 mph - N/A   Mostly Cloudy
3:53 AM 39.0 °F 35.7 °F 28.0 °F 65% 29.44 in 10.0 mi NNE 4.6 mph - N/A   Overcast
4:53 AM 37.9 °F 34.4 °F 28.9 °F 70% 29.41 in 10.0 mi North 4.6 mph - 0.00 in Rain Light Rain
5:53 AM 37.9 °F 33.5 °F 32.0 °F 79% 29.37 in 10.0 mi NE 5.8 mph - 0.03 in Rain Light Rain
6:53 AM 39.9 °F 35.8 °F 35.1 °F 83% 29.33 in 10.0 mi North 5.8 mph - 0.01 in Rain Light Rain
7:53 AM 42.8 °F 38.6 °F 37.4 °F 81% 29.27 in 10.0 mi North 6.9 mph - N/A Rain Light Rain
8:53 AM 41.0 °F 37.1 °F 37.0 °F 86% 29.30 in 10.0 mi NNE 5.8 mph - 0.00 in Rain Light Rain
9:53 AM 44.1 °F 41.5 °F 39.9 °F 85% 29.29 in 9.0 mi NW 4.6 mph - 0.02 in Rain Light Rain
10:53 AM 45.0 °F 43.5 °F 41.0 °F 86% 29.28 in 7.0 mi North 3.5 mph - 0.03 in Rain Light Rain
11:53 AM 46.9 °F - 43.0 °F 86% 29.27 in 10.0 mi NNE 3.5 mph - 0.04 in Rain Light Rain
12:53 PM 48.0 °F - 44.1 °F 86% 29.28 in 7.0 mi Calm Calm - 0.03 in Rain Light Rain
1:53 PM 48.9 °F - 45.0 °F 86% 29.29 in 10.0 mi Calm Calm - 0.01 in Rain Light Rain
2:43 PM 50.0 °F - 45.0 °F 83% 29.28 in 10.0 mi Calm Calm - 0.01 in Rain Light Rain
2:53 PM 50.0 °F - 45.0 °F 83% 29.30 in 10.0 mi Calm Calm - 0.01 in Rain Light Rain
3:53 PM 51.1 °F - 46.0 °F 83% 29.31 in 10.0 mi Calm Calm - 0.01 in Rain Light Rain
4:53 PM 51.1 °F - 46.0 °F 83% 29.32 in 10.0 mi Calm Calm - 0.00 in   Overcast
5:14 PM 51.1 °F - 45.0 °F 80% 29.31 in 10.0 mi SSW 5.8 mph - N/A   Overcast
5:53 PM 50.0 °F - 46.0 °F 86% 29.34 in 10.0 mi SSW 3.5 mph - 0.00 in Rain Light Rain
6:53 PM 50.0 °F - 45.0 °F 83% 29.34 in 10.0 mi SSW 4.6 mph - 0.00 in   Mostly Cloudy
7:53 PM 48.9 °F - 45.0 °F 86% 29.37 in 10.0 mi SSW 3.5 mph - N/A   Mostly Cloudy
8:53 PM 48.0 °F - 45.0 °F 89% 29.39 in 10.0 mi SSW 5.8 mph - 0.00 in Rain Light Rain
9:53 PM 46.0 °F 42.5 °F 44.1 °F 93% 29.41 in 10.0 mi South 6.9 mph - 0.01 in Rain Light Rain
10:53 PM 45.0 °F 41.2 °F 43.0 °F 93% 29.43 in 10.0 mi SSW 6.9 mph - 0.00 in Rain Light Rain
11:33 PM 44.1 °F 40.8 °F 42.1 °F 93% 29.42 in 10.0 mi South 5.8 mph - 0.00 in Rain Light Rain
11:53 PM 44.1 °F 40.1 °F 42.1 °F 93% 29.44 in 6.0 mi South 6.9 mph - 0.01 in Rain Light Rain